Time,TemperatureF,DewpointF,PressureIn,WindDirection,WindDirectionDegrees,WindSpeedMPH,WindSpeedGustMPH,Humidity,HourlyPrecipIn,Conditions,Clouds,dailyrainin,SoftwareType,DateUTC
2013-09-09 00:04:00,69.1,17.8,29.70,WNW,284,0.0,0.0,14,0.00,,,0.00,Wunderground v.1.15,2013-09-09 07:04:00,
2013-09-09 00:10:00,68.4,17.3,29.71,WNW,292,0.0,0.0,14,0.00,,,0.00,Wunderground v.1.15,2013-09-09 07:10:00,
2013-09-09 00:16:00,68.5,19.0,29.71,WNW,298,0.0,0.0,15,0.00,,,0.00,Wunderground v.1.15,2013-09-09 07:16:00,
2013-09-09 00:22:00,68.1,18.7,29.71,WNW,282,0.0,0.0,15,0.00,,,0.00,Wunderground v.1.15,2013-09-09 07:22:00,
2013-09-09 00:28:00,67.6,18.3,29.71,WNW,282,0.0,0.0,15,0.00,,,0.00,Wunderground v.1.15,2013-09-09 07:28:00,
2013-09-09 00:34:00,66.7,19.0,29.71,West,268,0.0,0.0,16,0.00,,,0.00,Wunderground v.1.15,2013-09-09 07:34:00,
2013-09-09 00:40:00,66.2,18.6,29.72,West,268,0.0,0.0,16,0.00,,,0.00,Wunderground v.1.15,2013-09-09 07:40:00,
2013-09-09 00:45:00,66.5,20.3,29.72,West,281,0.0,0.0,17,0.00,,,0.00,Wunderground v.1.15,2013-09-09 07:45:00,
2013-09-09 00:51:00,67.1,19.4,29.72,West,276,0.0,0.0,16,0.00,,,0.00,Wunderground v.1.15,2013-09-09 07:51:00,
2013-09-09 00:57:00,67.6,19.8,29.72,WNW,285,0.0,0.0,16,0.00,,,0.00,Wunderground v.1.15,2013-09-09 07:57:00,
2013-09-09 01:03:00,67.7,19.8,29.72,WNW,286,0.0,0.0,16,0.00,,,0.00,Wunderground v.1.15,2013-09-09 08:03:00,
2013-09-09 01:09:00,67.8,21.4,29.72,NW,309,0.0,0.0,17,0.00,,,0.00,Wunderground v.1.15,2013-09-09 08:09:00,
2013-09-09 01:15:00,67.5,22.5,29.73,WNW,293,0.0,0.0,18,0.00,,,0.00,Wunderground v.1.15,2013-09-09 08:15:00,
2013-09-09 01:21:00,67.8,21.4,29.73,WNW,287,0.0,0.0,17,0.00,,,0.00,Wunderground v.1.15,2013-09-09 08:21:00,
2013-09-09 01:27:00,67.5,22.5,29.73,West,278,0.0,0.0,18,0.00,,,0.00,Wunderground v.1.15,2013-09-09 08:27:00,
2013-09-09 01:33:00,66.9,23.3,29.73,WNW,283,0.0,0.0,19,0.00,,,0.00,Wunderground v.1.15,2013-09-09 08:33:00,
2013-09-09 01:39:00,66.7,24.3,29.73,West,281,0.0,0.0,20,0.00,,,0.00,Wunderground v.1.15,2013-09-09 08:39:00,
2013-09-09 01:44:00,66.6,25.4,29.73,West,275,0.0,0.0,21,0.00,,,0.00,Wunderground v.1.15,2013-09-09 08:44:00,
2013-09-09 01:50:00,66.4,25.2,29.73,West,278,0.0,0.0,21,0.00,,,0.00,Wunderground v.1.15,2013-09-09 08:50:00,
2013-09-09 01:56:00,66.4,26.4,29.73,WNW,293,0.0,0.0,22,0.00,,,0.00,Wunderground v.1.15,2013-09-09 08:56:00,
2013-09-09 02:02:00,66.1,26.1,29.73,WNW,284,0.0,0.0,22,0.00,,,0.00,Wunderground v.1.15,2013-09-09 09:02:00,
2013-09-09 02:08:00,66.0,26.0,29.73,WNW,285,0.0,0.0,22,0.00,,,0.00,Wunderground v.1.15,2013-09-09 09:08:00,
2013-09-09 02:14:00,65.6,25.7,29.73,West,276,0.0,0.0,22,0.00,,,0.00,Wunderground v.1.15,2013-09-09 09:14:00,
2013-09-09 02:20:00,65.6,25.7,29.73,West,271,0.0,0.0,22,0.00,,,0.00,Wunderground v.1.15,2013-09-09 09:20:00,
2013-09-09 02:26:00,65.2,24.2,29.73,NW,306,0.0,0.0,21,0.00,,,0.00,Wunderground v.1.15,2013-09-09 09:26:00,
2013-09-09 02:32:00,65.1,24.2,29.73,NNW,331,0.0,0.0,21,0.00,,,0.00,Wunderground v.1.15,2013-09-09 09:32:00,
2013-09-09 02:38:00,65.3,24.3,29.73,WNW,300,0.0,0.0,21,0.00,,,0.00,Wunderground v.1.15,2013-09-09 09:38:00,
2013-09-09 02:44:00,65.0,24.1,29.73,West,276,0.0,0.0,21,0.00,,,0.00,Wunderground v.1.15,2013-09-09 09:44:00,
2013-09-09 02:50:00,64.9,24.0,29.74,WNW,290,0.0,0.0,21,0.00,,,0.00,Wunderground v.1.15,2013-09-09 09:50:00,
2013-09-09 02:56:00,64.8,23.9,29.73,NW,321,0.0,0.0,21,0.00,,,0.00,Wunderground v.1.15,2013-09-09 09:56:00,
2013-09-09 03:02:00,64.2,25.6,29.73,West,274,0.0,0.0,23,0.00,,,0.00,Wunderground v.1.15,2013-09-09 10:02:00,
2013-09-09 03:08:00,64.3,25.7,29.73,WNW,285,0.0,0.0,23,0.00,,,0.00,Wunderground v.1.15,2013-09-09 10:08:00,
2013-09-09 03:14:00,64.2,26.6,29.73,West,270,0.0,0.0,24,0.00,,,0.00,Wunderground v.1.15,2013-09-09 10:14:00,
2013-09-09 03:20:00,63.9,27.4,29.73,WNW,282,0.0,0.0,25,0.00,,,0.00,Wunderground v.1.15,2013-09-09 10:20:00,
2013-09-09 03:25:00,63.9,27.4,29.73,WNW,295,0.0,0.0,25,0.00,,,0.00,Wunderground v.1.15,2013-09-09 10:25:00,
2013-09-09 03:31:00,63.9,27.4,29.73,West,278,0.0,0.0,25,0.00,,,0.00,Wunderground v.1.15,2013-09-09 10:31:00,
2013-09-09 03:36:00,63.5,28.0,29.73,West,281,0.0,0.0,26,0.00,,,0.00,Wunderground v.1.15,2013-09-09 10:36:00,
2013-09-09 03:42:00,63.0,28.5,29.73,West,281,0.0,0.0,27,0.00,,,0.00,Wunderground v.1.15,2013-09-09 10:42:00,
2013-09-09 03:48:00,62.6,28.1,29.73,WNW,287,0.0,0.0,27,0.00,,,0.00,Wunderground v.1.15,2013-09-09 10:48:00,
2013-09-09 03:54:00,62.3,29.6,29.73,WNW,288,0.0,0.0,29,0.00,,,0.00,Wunderground v.1.15,2013-09-09 10:54:00,
2013-09-09 03:59:00,62.3,29.6,29.73,WNW,295,0.0,0.0,29,0.00,,,0.00,Wunderground v.1.15,2013-09-09 10:59:00,
2013-09-09 04:05:00,62.4,29.7,29.73,West,269,0.0,0.0,29,0.00,,,0.00,Wunderground v.1.15,2013-09-09 11:05:00,
2013-09-09 04:11:00,62.6,30.7,29.74,WNW,297,0.0,0.0,30,0.00,,,0.00,Wunderground v.1.15,2013-09-09 11:11:00,
2013-09-09 04:17:00,62.5,30.6,29.73,West,274,0.0,0.0,30,0.00,,,0.00,Wunderground v.1.15,2013-09-09 11:17:00,
2013-09-09 04:23:00,62.2,31.2,29.74,West,280,0.0,0.0,31,0.00,,,0.00,Wunderground v.1.15,2013-09-09 11:23:00,
2013-09-09 04:29:00,61.9,30.9,29.74,WNW,291,0.0,0.0,31,0.00,,,0.00,Wunderground v.1.15,2013-09-09 11:29:00,
2013-09-09 04:35:00,61.8,31.6,29.74,NW,309,0.0,0.0,32,0.00,,,0.00,Wunderground v.1.15,2013-09-09 11:35:00,
2013-09-09 04:41:00,61.6,31.4,29.74,NW,318,0.0,0.0,32,0.00,,,0.00,Wunderground v.1.15,2013-09-09 11:41:00,
2013-09-09 04:46:00,61.8,32.4,29.74,WNW,300,0.0,0.0,33,0.00,,,0.00,Wunderground v.1.15,2013-09-09 11:46:00,
2013-09-09 04:52:00,62.3,32.0,29.74,NW,309,0.0,0.0,32,0.00,,,0.00,Wunderground v.1.15,2013-09-09 11:52:00,
2013-09-09 04:58:00,62.3,32.0,29.75,WNW,285,0.0,0.0,32,0.00,,,0.00,Wunderground v.1.15,2013-09-09 11:58:00,
2013-09-09 05:04:00,61.9,32.5,29.75,West,272,0.0,0.0,33,0.00,,,0.00,Wunderground v.1.15,2013-09-09 12:04:00,
2013-09-09 05:10:00,61.3,31.9,29.75,WNW,285,0.0,0.0,33,0.00,,,0.00,Wunderground v.1.15,2013-09-09 12:10:00,
2013-09-09 05:16:00,61.0,32.4,29.75,WNW,284,0.0,0.0,34,0.00,,,0.00,Wunderground v.1.15,2013-09-09 12:16:00,
2013-09-09 05:22:00,61.2,32.6,29.75,West,278,0.0,0.0,34,0.00,,,0.00,Wunderground v.1.15,2013-09-09 12:22:00,
2013-09-09 05:28:00,61.1,32.5,29.75,WSW,250,0.0,0.0,34,0.00,,,0.00,Wunderground v.1.15,2013-09-09 12:28:00,
2013-09-09 05:34:00,60.9,32.3,29.75,West,274,0.0,0.0,34,0.00,,,0.00,Wunderground v.1.15,2013-09-09 12:34:00,
2013-09-09 05:39:00,61.2,32.6,29.75,WNW,285,0.0,0.0,34,0.00,,,0.00,Wunderground v.1.15,2013-09-09 12:39:00,
2013-09-09 05:45:00,61.5,32.1,29.76,West,274,0.0,0.0,33,0.00,,,0.00,Wunderground v.1.15,2013-09-09 12:45:00,
2013-09-09 05:50:00,61.6,32.9,29.76,West,267,0.0,0.0,34,0.00,,,0.00,Wunderground v.1.15,2013-09-09 12:50:00,
2013-09-09 05:56:00,62.3,32.8,29.76,WNW,290,0.0,0.0,33,0.00,,,0.00,Wunderground v.1.15,2013-09-09 12:56:00,
2013-09-09 06:02:00,62.9,33.3,29.76,West,263,0.0,0.0,33,0.00,,,0.00,Wunderground v.1.15,2013-09-09 13:02:00,
2013-09-09 06:08:00,63.1,33.5,29.76,WNW,283,0.0,0.0,33,0.00,,,0.00,Wunderground v.1.15,2013-09-09 13:08:00,
2013-09-09 06:14:00,62.4,32.9,29.76,WNW,283,0.0,0.0,33,0.00,,,0.00,Wunderground v.1.15,2013-09-09 13:14:00,
2013-09-09 06:20:00,-999.9,-99.9,29.76,North,32767,-999.0,0.0,255,-99.99,,,0.00,Wunderground v.1.15,2013-09-09 13:20:00,
2013-09-09 06:25:00,-999.9,-99.9,29.76,North,32767,-999.0,0.0,255,-99.99,,,0.00,Wunderground v.1.15,2013-09-09 13:25:00,
2013-09-09 06:31:00,-999.9,-99.9,29.76,North,32767,-999.0,0.0,255,-99.99,,,0.00,Wunderground v.1.15,2013-09-09 13:31:00,
2013-09-09 06:37:00,-999.9,-99.9,29.76,North,32767,-999.0,0.0,255,-99.99,,,0.00,Wunderground v.1.15,2013-09-09 13:37:00,
2013-09-09 06:43:00,-999.9,-99.9,29.76,North,32767,-999.0,0.0,255,-99.99,,,0.00,Wunderground v.1.15,2013-09-09 13:43:00,
2013-09-09 06:48:00,-999.9,-99.9,29.76,North,32767,-999.0,0.0,255,-99.99,,,0.00,Wunderground v.1.15,2013-09-09 13:48:00,
2013-09-09 06:53:00,-999.9,-99.9,29.76,North,32767,-999.0,0.0,255,-99.99,,,0.00,Wunderground v.1.15,2013-09-09 13:53:00,
2013-09-09 06:59:00,-999.9,-99.9,29.76,North,32767,-999.0,0.0,255,-99.99,,,0.00,Wunderground v.1.15,2013-09-09 13:59:00,
2013-09-09 07:04:00,63.0,-99.9,29.76,WNW,295,0.0,0.0,255,0.00,,,0.00,Wunderground v.1.15,2013-09-09 14:04:00,
2013-09-09 07:09:00,63.2,33.6,29.76,NW,307,0.0,0.0,33,0.00,,,0.00,Wunderground v.1.15,2013-09-09 14:09:00,
2013-09-09 07:15:00,63.3,34.4,29.77,NW,316,0.0,0.0,34,0.00,,,0.00,Wunderground v.1.15,2013-09-09 14:15:00,
2013-09-09 07:21:00,63.7,34.8,29.77,NW,317,0.0,0.0,34,0.00,,,0.00,Wunderground v.1.15,2013-09-09 14:21:00,
2013-09-09 07:27:00,64.2,34.5,29.77,NW,316,0.0,0.0,33,0.00,,,0.00,Wunderground v.1.15,2013-09-09 14:27:00,
2013-09-09 07:33:00,64.7,34.9,29.77,WNW,301,0.0,0.0,33,0.00,,,0.00,Wunderground v.1.15,2013-09-09 14:33:00,
2013-09-09 07:39:00,65.2,35.4,29.77,WNW,297,0.0,0.0,33,0.00,,,0.00,Wunderground v.1.15,2013-09-09 14:39:00,
2013-09-09 07:45:00,65.7,35.0,29.77,WNW,285,0.0,0.0,32,0.00,,,0.00,Wunderground v.1.15,2013-09-09 14:45:00,
2013-09-09 07:51:00,66.3,34.7,29.78,WNW,297,0.0,0.0,31,0.00,,,0.00,Wunderground v.1.15,2013-09-09 14:51:00,
2013-09-09 07:57:00,66.7,35.1,29.78,NW,311,0.0,0.0,31,0.00,,,0.00,Wunderground v.1.15,2013-09-09 14:57:00,
2013-09-09 08:03:00,67.2,35.5,29.78,West,281,0.0,0.0,31,0.00,,,0.00,Wunderground v.1.15,2013-09-09 15:03:00,
2013-09-09 08:09:00,67.9,35.3,29.78,NW,311,0.0,0.0,30,0.00,,,0.00,Wunderground v.1.15,2013-09-09 15:09:00,
2013-09-09 08:14:00,68.4,35.7,29.78,WNW,283,0.0,0.0,30,0.00,,,0.00,Wunderground v.1.15,2013-09-09 15:14:00,
2013-09-09 08:20:00,68.9,36.2,29.78,WNW,282,0.0,0.0,30,0.00,,,0.00,Wunderground v.1.15,2013-09-09 15:20:00,
2013-09-09 08:26:00,69.2,35.6,29.78,NW,313,0.0,0.0,29,0.00,,,0.00,Wunderground v.1.15,2013-09-09 15:26:00,
2013-09-09 08:32:00,69.6,35.9,29.78,NW,325,0.0,0.0,29,0.00,,,0.00,Wunderground v.1.15,2013-09-09 15:32:00,
2013-09-09 08:38:00,69.9,36.2,29.78,NNW,344,0.0,0.0,29,0.00,,,0.00,Wunderground v.1.15,2013-09-09 15:38:00,
2013-09-09 08:44:00,70.1,36.3,29.78,NW,324,0.0,0.0,29,0.00,,,0.00,Wunderground v.1.15,2013-09-09 15:44:00,
2013-09-09 08:50:00,70.5,36.7,29.78,NW,319,0.0,0.0,29,0.00,,,0.00,Wunderground v.1.15,2013-09-09 15:50:00,
2013-09-09 08:56:00,70.7,36.9,29.78,NW,322,0.0,0.0,29,0.00,,,0.00,Wunderground v.1.15,2013-09-09 15:56:00,
2013-09-09 09:02:00,71.4,37.5,29.78,NNE,17,0.0,0.0,29,0.00,,,0.00,Wunderground v.1.15,2013-09-09 16:02:00,
2013-09-09 09:08:00,71.8,36.9,29.78,WNW,303,0.0,0.0,28,0.00,,,0.00,Wunderground v.1.15,2013-09-09 16:08:00,
2013-09-09 09:14:00,72.4,37.4,29.78,WNW,288,0.0,0.0,28,0.00,,,0.00,Wunderground v.1.15,2013-09-09 16:14:00,
2013-09-09 09:20:00,73.3,37.3,29.78,NW,319,0.0,0.0,27,0.00,,,0.00,Wunderground v.1.15,2013-09-09 16:20:00,
2013-09-09 09:25:00,73.5,37.5,29.78,WNW,300,0.0,0.0,27,0.00,,,0.00,Wunderground v.1.15,2013-09-09 16:25:00,
2013-09-09 09:31:00,73.4,37.4,29.78,NW,308,0.0,0.0,27,0.00,,,0.00,Wunderground v.1.15,2013-09-09 16:31:00,
2013-09-09 09:37:00,73.5,37.5,29.78,NNW,334,0.0,0.0,27,0.00,,,0.00,Wunderground v.1.15,2013-09-09 16:37:00,
2013-09-09 09:43:00,74.0,37.9,29.78,North,349,0.0,0.0,27,0.00,,,0.00,Wunderground v.1.15,2013-09-09 16:43:00,
2013-09-09 09:49:00,74.1,38.9,29.77,NW,313,0.0,0.0,28,0.00,,,0.00,Wunderground v.1.15,2013-09-09 16:49:00,
2013-09-09 09:55:00,73.9,38.7,29.77,NNW,346,0.0,0.0,28,0.00,,,0.00,Wunderground v.1.15,2013-09-09 16:55:00,
2013-09-09 10:00:00,73.9,37.8,29.77,NE,39,0.0,0.0,27,0.00,,,0.00,Wunderground v.1.15,2013-09-09 17:00:00,
2013-09-09 10:05:00,74.0,37.9,29.77,NW,318,0.0,0.0,27,0.00,,,0.00,Wunderground v.1.15,2013-09-09 17:05:00,
2013-09-09 10:11:00,74.7,38.5,29.77,NE,52,0.0,0.0,27,0.00,,,0.00,Wunderground v.1.15,2013-09-09 17:11:00,
2013-09-09 10:17:00,74.9,38.7,29.77,WNW,297,0.0,0.0,27,0.00,,,0.00,Wunderground v.1.15,2013-09-09 17:17:00,
2013-09-09 10:23:00,74.9,38.7,29.77,NNE,14,0.0,0.0,27,0.00,,,0.00,Wunderground v.1.15,2013-09-09 17:23:00,
2013-09-09 10:29:00,74.9,38.7,29.77,WNW,287,0.0,0.0,27,0.00,,,0.00,Wunderground v.1.15,2013-09-09 17:29:00,
2013-09-09 10:34:00,75.4,39.1,29.77,West,275,0.0,0.0,27,0.00,,,0.00,Wunderground v.1.15,2013-09-09 17:34:00,
2013-09-09 10:40:00,76.4,39.0,29.77,East,84,0.0,0.0,26,0.00,,,0.00,Wunderground v.1.15,2013-09-09 17:40:00,
2013-09-09 10:46:00,76.1,38.7,29.77,NW,311,0.0,0.0,26,0.00,,,0.00,Wunderground v.1.15,2013-09-09 17:46:00,
2013-09-09 10:52:00,77.2,39.6,29.76,NNE,18,0.0,0.0,26,0.00,,,0.00,Wunderground v.1.15,2013-09-09 17:52:00,
2013-09-09 10:58:00,77.5,38.9,29.76,NNW,333,0.0,0.0,25,0.00,,,0.00,Wunderground v.1.15,2013-09-09 17:58:00,
2013-09-09 11:04:00,78.0,39.3,29.76,NNE,23,0.0,0.0,25,0.00,,,0.00,Wunderground v.1.15,2013-09-09 18:04:00,
2013-09-09 11:10:00,77.5,38.9,29.76,NW,311,0.0,0.0,25,0.00,,,0.00,Wunderground v.1.15,2013-09-09 18:10:00,
2013-09-09 11:16:00,77.8,39.1,29.76,NNW,342,0.0,0.0,25,0.00,,,0.00,Wunderground v.1.15,2013-09-09 18:16:00,
2013-09-09 11:21:00,78.2,39.5,29.76,NNW,345,0.0,0.0,25,0.00,,,0.00,Wunderground v.1.15,2013-09-09 18:21:00,
2013-09-09 11:27:00,78.1,39.4,29.75,North,10,0.0,0.0,25,0.00,,,0.00,Wunderground v.1.15,2013-09-09 18:27:00,
2013-09-09 11:32:00,78.4,39.7,29.75,North,356,0.0,0.0,25,0.00,,,0.00,Wunderground v.1.15,2013-09-09 18:32:00,
2013-09-09 11:38:00,79.5,39.5,29.75,NE,38,0.0,0.0,24,0.00,,,0.00,Wunderground v.1.15,2013-09-09 18:38:00,
2013-09-09 11:44:00,79.2,39.3,29.75,West,274,0.0,0.0,24,0.00,,,0.00,Wunderground v.1.15,2013-09-09 18:44:00,
2013-09-09 11:50:00,79.6,39.6,29.75,North,8,0.0,0.0,24,0.00,,,0.00,Wunderground v.1.15,2013-09-09 18:50:00,
2013-09-09 11:56:00,79.6,39.6,29.75,NE,53,0.0,0.0,24,0.00,,,0.00,Wunderground v.1.15,2013-09-09 18:56:00,
2013-09-09 12:02:00,79.4,39.4,29.74,NE,39,0.0,0.0,24,0.00,,,0.00,Wunderground v.1.15,2013-09-09 19:02:00,
2013-09-09 12:08:00,80.3,40.2,29.74,NNW,342,0.0,0.0,24,0.00,,,0.00,Wunderground v.1.15,2013-09-09 19:08:00,
2013-09-09 12:14:00,80.3,39.1,29.74,NE,44,0.0,0.0,23,0.00,,,0.00,Wunderground v.1.15,2013-09-09 19:14:00,
2013-09-09 12:20:00,80.4,39.2,29.73,NW,307,0.0,0.0,23,0.00,,,0.00,Wunderground v.1.15,2013-09-09 19:20:00,
2013-09-09 12:25:00,81.2,39.9,29.73,NNE,30,0.0,0.0,23,0.00,,,0.00,Wunderground v.1.15,2013-09-09 19:25:00,
2013-09-09 12:31:00,81.1,39.8,29.73,NE,49,0.0,0.0,23,0.00,,,0.00,Wunderground v.1.15,2013-09-09 19:31:00,
2013-09-09 12:37:00,81.1,38.6,29.73,NE,52,0.0,0.0,22,0.00,,,0.00,Wunderground v.1.15,2013-09-09 19:37:00,
2013-09-09 12:43:00,81.0,39.7,29.73,NW,304,0.0,0.0,23,0.00,,,0.00,Wunderground v.1.15,2013-09-09 19:43:00,
2013-09-09 12:49:00,81.7,39.1,29.72,WNW,299,0.0,0.0,22,0.00,,,0.00,Wunderground v.1.15,2013-09-09 19:49:00,
2013-09-09 12:55:00,82.1,39.5,29.72,NE,49,0.0,0.0,22,0.00,,,0.00,Wunderground v.1.15,2013-09-09 19:55:00,
2013-09-09 13:00:00,81.7,39.1,29.72,NNE,25,0.0,0.0,22,0.00,,,0.00,Wunderground v.1.15,2013-09-09 20:00:00,
2013-09-09 13:05:00,82.0,39.4,29.72,North,1,0.0,0.0,22,0.00,,,0.00,Wunderground v.1.15,2013-09-09 20:05:00,
2013-09-09 13:11:00,82.0,39.4,29.72,WNW,298,0.0,0.0,22,0.00,,,0.00,Wunderground v.1.15,2013-09-09 20:11:00,
2013-09-09 13:17:00,82.4,39.7,29.71,NE,51,0.0,0.0,22,0.00,,,0.00,Wunderground v.1.15,2013-09-09 20:17:00,
2013-09-09 13:23:00,82.1,39.5,29.71,East,96,0.0,0.0,22,0.00,,,0.00,Wunderground v.1.15,2013-09-09 20:23:00,
2013-09-09 13:29:00,82.1,39.5,29.71,ENE,77,0.0,0.0,22,0.00,,,0.00,Wunderground v.1.15,2013-09-09 20:29:00,
2013-09-09 13:35:00,82.7,38.8,29.70,NE,42,0.0,0.0,21,0.00,,,0.00,Wunderground v.1.15,2013-09-09 20:35:00,
2013-09-09 13:40:00,82.9,38.9,29.70,NW,311,0.0,0.0,21,0.00,,,0.00,Wunderground v.1.15,2013-09-09 20:40:00,
2013-09-09 13:46:00,83.1,39.1,29.70,NNW,332,0.0,0.0,21,0.00,,,0.00,Wunderground v.1.15,2013-09-09 20:46:00,
2013-09-09 13:52:00,83.0,39.0,29.69,East,91,0.0,0.0,21,0.00,,,0.00,Wunderground v.1.15,2013-09-09 20:52:00,
2013-09-09 13:58:00,83.3,39.3,29.69,NNE,30,0.0,0.0,21,0.00,,,0.00,Wunderground v.1.15,2013-09-09 20:58:00,
2013-09-09 14:04:00,83.2,37.9,29.69,South,178,0.0,0.0,20,0.00,,,0.00,Wunderground v.1.15,2013-09-09 21:04:00,
2013-09-09 14:10:00,84.1,38.7,29.69,SW,216,0.0,0.0,20,0.00,,,0.00,Wunderground v.1.15,2013-09-09 21:10:00,
2013-09-09 14:16:00,84.5,39.0,29.69,NE,50,0.0,0.0,20,0.00,,,0.00,Wunderground v.1.15,2013-09-09 21:16:00,
2013-09-09 14:22:00,83.6,38.3,29.69,NE,34,0.0,0.0,20,0.00,,,0.00,Wunderground v.1.15,2013-09-09 21:22:00,
2013-09-09 14:27:00,83.7,38.4,29.68,SW,217,0.0,0.0,20,0.00,,,0.00,Wunderground v.1.15,2013-09-09 21:27:00,
2013-09-09 14:33:00,84.2,37.5,29.68,NW,319,0.0,0.0,19,0.00,,,0.00,Wunderground v.1.15,2013-09-09 21:33:00,
2013-09-09 14:39:00,84.9,38.0,29.68,NW,326,0.0,0.0,19,0.00,,,0.00,Wunderground v.1.15,2013-09-09 21:39:00,
2013-09-09 14:45:00,84.5,36.3,29.68,NW,304,0.0,0.0,18,0.00,,,0.00,Wunderground v.1.15,2013-09-09 21:45:00,
2013-09-09 14:51:00,85.1,36.8,29.67,South,176,0.0,0.0,18,0.00,,,0.00,Wunderground v.1.15,2013-09-09 21:51:00,
2013-09-09 14:57:00,85.9,37.5,29.67,WNW,302,0.0,0.0,18,0.00,,,0.00,Wunderground v.1.15,2013-09-09 21:57:00,
2013-09-09 15:03:00,85.5,37.1,29.67,NW,308,0.0,0.0,18,0.00,,,0.00,Wunderground v.1.15,2013-09-09 22:03:00,
2013-09-09 15:09:00,85.8,35.9,29.66,North,6,0.0,0.0,17,0.00,,,0.00,Wunderground v.1.15,2013-09-09 22:09:00,
2013-09-09 15:15:00,85.4,37.1,29.66,NNE,18,0.0,0.0,18,0.00,,,0.00,Wunderground v.1.15,2013-09-09 22:15:00,
2013-09-09 15:21:00,85.8,35.9,29.66,NNW,345,0.0,0.0,17,0.00,,,0.00,Wunderground v.1.15,2013-09-09 22:21:00,
2013-09-09 15:27:00,85.5,35.7,29.66,NE,49,0.0,0.0,17,0.00,,,0.00,Wunderground v.1.15,2013-09-09 22:27:00,
2013-09-09 15:33:00,85.3,35.5,29.66,NW,311,0.0,0.0,17,0.00,,,0.00,Wunderground v.1.15,2013-09-09 22:33:00,
2013-09-09 15:39:00,85.2,35.5,29.65,NNW,333,0.0,0.0,17,0.00,,,0.00,Wunderground v.1.15,2013-09-09 22:39:00,
2013-09-09 15:45:00,85.3,35.5,29.65,NW,308,0.0,0.0,17,0.00,,,0.00,Wunderground v.1.15,2013-09-09 22:45:00,
2013-09-09 15:50:00,85.4,37.1,29.65,NE,39,0.0,0.0,18,0.00,,,0.00,Wunderground v.1.15,2013-09-09 22:50:00,
2013-09-09 15:56:00,85.7,35.9,29.65,NNE,25,0.0,0.0,17,0.00,,,0.00,Wunderground v.1.15,2013-09-09 22:56:00,
2013-09-09 16:02:00,85.0,35.3,29.64,East,83,0.0,0.0,17,0.00,,,0.00,Wunderground v.1.15,2013-09-09 23:02:00,
2013-09-09 16:08:00,85.4,34.1,29.64,NNW,333,0.0,0.0,16,0.00,,,0.00,Wunderground v.1.15,2013-09-09 23:08:00,
2013-09-09 16:14:00,85.7,34.3,29.65,NW,311,0.0,0.0,16,0.00,,,0.00,Wunderground v.1.15,2013-09-09 23:14:00,
2013-09-09 16:20:00,85.5,34.2,29.64,NNE,23,0.0,0.0,16,0.00,,,0.00,Wunderground v.1.15,2013-09-09 23:20:00,
2013-09-09 16:26:00,85.4,34.1,29.64,NNE,30,0.0,0.0,16,0.00,,,0.00,Wunderground v.1.15,2013-09-09 23:26:00,
2013-09-09 16:32:00,85.2,33.9,29.64,NNE,20,0.0,0.0,16,0.00,,,0.00,Wunderground v.1.15,2013-09-09 23:32:00,
2013-09-09 16:38:00,85.7,32.7,29.64,NNE,12,0.0,0.0,15,0.00,,,0.00,Wunderground v.1.15,2013-09-09 23:38:00,
2013-09-09 16:43:00,85.7,31.0,29.64,North,6,0.0,0.0,14,0.00,,,0.00,Wunderground v.1.15,2013-09-09 23:43:00,
2013-09-09 16:49:00,85.4,30.8,29.64,NNE,20,0.0,0.0,14,0.00,,,0.00,Wunderground v.1.15,2013-09-09 23:49:00,
2013-09-09 16:55:00,86.0,31.2,29.64,North,11,0.0,0.0,14,0.00,,,0.00,Wunderground v.1.15,2013-09-09 23:55:00,
2013-09-09 17:00:00,85.6,30.9,29.64,NNW,342,0.0,0.0,14,0.00,,,0.00,Wunderground v.1.15,2013-09-10 00:00:00,
2013-09-09 17:06:00,85.9,31.2,29.64,North,4,0.0,0.0,14,0.00,,,0.00,Wunderground v.1.15,2013-09-10 00:06:00,
2013-09-09 17:12:00,86.1,29.5,29.64,NE,45,0.0,0.0,13,0.00,,,0.00,Wunderground v.1.15,2013-09-10 00:12:00,
2013-09-09 17:17:00,86.1,31.3,29.64,NW,321,0.0,0.0,14,0.00,,,0.00,Wunderground v.1.15,2013-09-10 00:17:00,
2013-09-09 17:23:00,85.8,29.3,29.64,WNW,303,0.0,0.0,13,0.00,,,0.00,Wunderground v.1.15,2013-09-10 00:23:00,
2013-09-09 17:29:00,85.7,29.2,29.64,NNW,347,0.0,0.0,13,0.00,,,0.00,Wunderground v.1.15,2013-09-10 00:29:00,
2013-09-09 17:35:00,85.6,27.1,29.64,North,357,0.0,0.0,12,0.00,,,0.00,Wunderground v.1.15,2013-09-10 00:35:00,
2013-09-09 17:40:00,85.6,25.0,29.63,NNE,20,0.0,0.0,11,0.00,,,0.00,Wunderground v.1.15,2013-09-10 00:40:00,
2013-09-09 17:46:00,85.4,28.9,29.63,NE,39,0.0,0.0,13,0.00,,,0.00,Wunderground v.1.15,2013-09-10 00:46:00,
2013-09-09 17:52:00,85.2,28.8,29.63,North,10,0.0,0.0,13,0.00,,,0.00,Wunderground v.1.15,2013-09-10 00:52:00,
2013-09-09 17:58:00,85.0,28.6,29.63,North,11,0.0,0.0,13,0.00,,,0.00,Wunderground v.1.15,2013-09-10 00:58:00,
2013-09-09 18:04:00,84.9,28.6,29.63,North,359,0.0,0.0,13,0.00,,,0.00,Wunderground v.1.15,2013-09-10 01:04:00,
2013-09-09 18:10:00,84.8,28.5,29.63,North,349,0.0,0.0,13,0.00,,,0.00,Wunderground v.1.15,2013-09-10 01:10:00,
2013-09-09 18:16:00,84.6,28.3,29.63,North,357,0.0,0.0,13,0.00,,,0.00,Wunderground v.1.15,2013-09-10 01:16:00,
2013-09-09 18:21:00,84.5,28.2,29.63,NNE,20,0.0,0.0,13,0.00,,,0.00,Wunderground v.1.15,2013-09-10 01:21:00,
2013-09-09 18:27:00,84.3,29.9,29.63,NNE,18,0.0,0.0,14,0.00,,,0.00,Wunderground v.1.15,2013-09-10 01:27:00,
2013-09-09 18:33:00,84.1,31.4,29.63,NNW,342,0.0,0.0,15,0.00,,,0.00,Wunderground v.1.15,2013-09-10 01:33:00,
2013-09-09 18:39:00,83.8,31.2,29.63,NNW,330,0.0,0.0,15,0.00,,,0.00,Wunderground v.1.15,2013-09-10 01:39:00,
2013-09-09 18:45:00,83.6,31.0,29.63,NNW,336,0.0,0.0,15,0.00,,,0.00,Wunderground v.1.15,2013-09-10 01:45:00,
2013-09-09 18:50:00,83.3,30.8,29.64,NNW,329,0.0,0.0,15,0.00,,,0.00,Wunderground v.1.15,2013-09-10 01:50:00,
2013-09-09 18:56:00,82.8,28.7,29.64,NNW,347,0.0,0.0,14,0.00,,,0.00,Wunderground v.1.15,2013-09-10 01:56:00,
2013-09-09 19:02:00,82.4,28.4,29.64,NNW,338,0.0,0.0,14,0.00,,,0.00,Wunderground v.1.15,2013-09-10 02:02:00,
2013-09-09 19:07:00,81.9,29.7,29.64,NNW,335,0.0,0.0,15,0.00,,,0.00,Wunderground v.1.15,2013-09-10 02:07:00,
2013-09-09 19:13:00,81.2,29.1,29.64,NNW,347,0.0,0.0,15,0.00,,,0.00,Wunderground v.1.15,2013-09-10 02:13:00,
2013-09-09 19:19:00,80.3,31.5,29.64,North,6,0.0,0.0,17,0.00,,,0.00,Wunderground v.1.15,2013-09-10 02:19:00,
2013-09-09 19:25:00,79.6,30.9,29.65,North,349,0.0,0.0,17,0.00,,,0.00,Wunderground v.1.15,2013-09-10 02:25:00,
2013-09-09 19:31:00,78.8,31.7,29.65,NNW,339,0.0,0.0,18,0.00,,,0.00,Wunderground v.1.15,2013-09-10 02:31:00,
2013-09-09 19:37:00,78.3,31.3,29.65,North,354,0.0,0.0,18,0.00,,,0.00,Wunderground v.1.15,2013-09-10 02:37:00,
2013-09-09 19:43:00,78.0,31.0,29.65,NNE,19,0.0,0.0,18,0.00,,,0.00,Wunderground v.1.15,2013-09-10 02:43:00,
2013-09-09 19:48:00,78.0,31.0,29.65,NNE,23,0.0,0.0,18,0.00,,,0.00,Wunderground v.1.15,2013-09-10 02:48:00,
2013-09-09 19:54:00,77.7,30.8,29.66,North,359,0.0,0.0,18,0.00,,,0.00,Wunderground v.1.15,2013-09-10 02:54:00,
2013-09-09 20:00:00,77.4,29.1,29.66,NNE,21,0.0,0.0,17,0.00,,,0.00,Wunderground v.1.15,2013-09-10 03:00:00,
2013-09-09 20:06:00,77.2,29.0,29.66,North,8,0.0,0.0,17,0.00,,,0.00,Wunderground v.1.15,2013-09-10 03:06:00,
2013-09-09 20:12:00,76.8,27.2,29.66,NNE,23,0.0,0.0,16,0.00,,,0.00,Wunderground v.1.15,2013-09-10 03:12:00,
2013-09-09 20:17:00,76.6,27.0,29.67,NNE,17,0.0,0.0,16,0.00,,,0.00,Wunderground v.1.15,2013-09-10 03:17:00,
2013-09-09 20:23:00,76.3,28.3,29.67,North,3,0.0,0.0,17,0.00,,,0.00,Wunderground v.1.15,2013-09-10 03:23:00,
2013-09-09 20:29:00,75.9,27.9,29.67,North,10,0.0,0.0,17,0.00,,,0.00,Wunderground v.1.15,2013-09-10 03:29:00,
2013-09-09 20:35:00,75.5,29.0,29.67,North,353,0.0,0.0,18,0.00,,,0.00,Wunderground v.1.15,2013-09-10 03:35:00,
2013-09-09 20:41:00,74.6,28.3,29.67,NNW,347,0.0,0.0,18,0.00,,,0.00,Wunderground v.1.15,2013-09-10 03:41:00,
2013-09-09 20:47:00,73.8,28.9,29.68,NNW,340,0.0,0.0,19,0.00,,,0.00,Wunderground v.1.15,2013-09-10 03:47:00,
2013-09-09 20:53:00,73.1,28.4,29.68,NNW,330,0.0,0.0,19,0.00,,,0.00,Wunderground v.1.15,2013-09-10 03:53:00,
2013-09-09 20:59:00,72.8,28.1,29.68,NNW,345,0.0,0.0,19,0.00,,,0.00,Wunderground v.1.15,2013-09-10 03:59:00,
2013-09-09 21:01:00,72.7,28.0,29.68,NNW,342,0.0,0.0,19,0.00,,,0.00,Wunderground v.1.15,2013-09-10 04:01:00,
2013-09-09 21:02:00,72.6,27.9,29.68,North,354,0.0,0.0,19,0.00,,,0.00,Wunderground v.1.15,2013-09-10 04:02:00,
2013-09-09 21:04:00,72.5,27.9,29.68,NNW,340,0.0,0.0,19,0.00,,,0.00,Wunderground v.1.15,2013-09-10 04:04:00,
2013-09-09 21:06:00,72.3,27.7,29.68,NNW,344,0.0,0.0,19,0.00,,,0.00,Wunderground v.1.15,2013-09-10 04:06:00,
2013-09-09 21:08:00,72.1,27.5,29.68,NNW,340,0.0,0.0,19,0.00,,,0.00,Wunderground v.1.15,2013-09-10 04:08:00,
2013-09-09 21:14:00,71.8,27.3,29.68,NNW,347,0.0,0.0,19,0.00,,,0.00,Wunderground v.1.15,2013-09-10 04:14:00,
2013-09-09 21:17:00,71.6,27.1,29.68,NNW,344,0.0,0.0,19,0.00,,,0.00,Wunderground v.1.15,2013-09-10 04:17:00,
2013-09-09 21:22:00,71.4,27.0,29.68,NNW,345,0.0,0.0,19,0.00,,,0.00,Wunderground v.1.15,2013-09-10 04:22:00,
2013-09-09 21:28:00,71.2,28.0,29.69,NNW,346,0.0,0.0,20,0.00,,,0.00,Wunderground v.1.15,2013-09-10 04:28:00,
2013-09-09 21:34:00,71.1,28.0,29.69,NNW,343,0.0,0.0,20,0.00,,,0.00,Wunderground v.1.15,2013-09-10 04:34:00,
2013-09-09 21:40:00,70.9,27.8,29.69,NNW,338,0.0,0.0,20,0.00,,,0.00,Wunderground v.1.15,2013-09-10 04:40:00,
2013-09-09 21:46:00,70.7,27.6,29.69,NNW,340,0.0,0.0,20,0.00,,,0.00,Wunderground v.1.15,2013-09-10 04:46:00,
2013-09-09 21:52:00,70.6,27.5,29.69,NNW,338,0.0,0.0,20,0.00,,,0.00,Wunderground v.1.15,2013-09-10 04:52:00,
2013-09-09 21:58:00,70.3,27.3,29.69,NNW,337,0.0,1.0,20,0.00,,,0.00,Wunderground v.1.15,2013-09-10 04:58:00,
2013-09-09 22:04:00,70.2,27.2,29.69,NNW,339,0.0,0.0,20,0.00,,,0.00,Wunderground v.1.15,2013-09-10 05:04:00,
2013-09-09 22:10:00,70.3,27.3,29.69,North,350,0.0,0.0,20,0.00,,,0.00,Wunderground v.1.15,2013-09-10 05:10:00,
2013-09-09 22:16:00,70.5,27.5,29.69,NNW,338,0.0,0.0,20,0.00,,,0.00,Wunderground v.1.15,2013-09-10 05:16:00,
2013-09-09 22:22:00,70.1,27.1,29.69,NNW,332,0.0,0.0,20,0.00,,,0.00,Wunderground v.1.15,2013-09-10 05:22:00,
2013-09-09 22:28:00,69.5,26.6,29.69,NNW,339,0.0,0.0,20,0.00,,,0.00,Wunderground v.1.15,2013-09-10 05:28:00,
2013-09-09 22:33:00,69.2,26.4,29.69,NNW,339,0.0,0.0,20,0.00,,,0.00,Wunderground v.1.15,2013-09-10 05:33:00,
2013-09-09 22:39:00,68.9,27.3,29.70,NNW,333,0.0,0.0,21,0.00,,,0.00,Wunderground v.1.15,2013-09-10 05:39:00,
2013-09-09 22:45:00,68.7,27.2,29.70,NNW,340,0.0,0.0,21,0.00,,,0.00,Wunderground v.1.15,2013-09-10 05:45:00,
2013-09-09 22:51:00,68.7,27.2,29.70,NNW,333,0.0,0.0,21,0.00,,,0.00,Wunderground v.1.15,2013-09-10 05:51:00,
2013-09-09 22:57:00,68.9,27.3,29.69,NNW,337,0.0,0.0,21,0.00,,,0.00,Wunderground v.1.15,2013-09-10 05:57:00,
2013-09-09 23:03:00,69.1,27.5,29.69,NNW,335,0.0,0.0,21,0.00,,,0.00,Wunderground v.1.15,2013-09-10 06:03:00,
2013-09-09 23:09:00,69.3,27.7,29.70,NW,325,0.0,0.0,21,0.00,,,0.00,Wunderground v.1.15,2013-09-10 06:09:00,
2013-09-09 23:15:00,67.4,27.2,29.70,SE,131,0.0,0.0,22,0.00,,,0.00,Wunderground v.1.15,2013-09-10 06:15:00,
2013-09-09 23:20:00,65.9,27.0,29.70,South,178,0.0,0.0,23,0.00,,,0.00,Wunderground v.1.15,2013-09-10 06:20:00,
2013-09-09 23:26:00,65.2,27.5,29.70,WSW,238,0.0,0.0,24,0.00,,,0.00,Wunderground v.1.15,2013-09-10 06:26:00,
2013-09-09 23:32:00,65.0,28.3,29.70,WSW,243,0.0,0.0,25,0.00,,,0.00,Wunderground v.1.15,2013-09-10 06:32:00,
2013-09-09 23:38:00,64.7,28.0,29.70,West,264,0.0,0.0,25,0.00,,,0.00,Wunderground v.1.15,2013-09-10 06:38:00,
2013-09-09 23:44:00,64.2,28.6,29.70,West,271,0.0,0.0,26,0.00,,,0.00,Wunderground v.1.15,2013-09-10 06:44:00,
2013-09-09 23:50:00,64.8,28.1,29.70,West,278,0.0,0.0,25,0.00,,,0.00,Wunderground v.1.15,2013-09-10 06:50:00,
2013-09-09 23:56:00,65.6,27.8,29.70,West,278,0.0,0.0,24,0.00,,,0.00,Wunderground v.1.15,2013-09-10 06:56:00,